Regional Weather Roundup
Issued by NWS Little Rock, AR

Home | Current Version | Previous Version | Text Only | Print | Product List | Glossary On
Versions: 1 2 3 4 5 6 7 8 9 10 11 12 13 14 15 16 17 18 19 20 21 22 23 24 25 26 27 28 29 30 31 32 33 34 35 36 37 38 39 40 41 42 43 44 45 46 47 48 49 50
667
ASUS44 KLZK 251105
RWRLZK

WEATHER ROUNDUP FOR ARKANSAS
NATIONAL WEATHER SERVICE LITTLE ROCK AR
500 AM CST SAT FEB 25 2017

NOTE: "FAIR" INDICATES FEW OR NO CLOUDS BELOW 12,000 FEET WITH NO
SIGNIFICANT WEATHER AND/OR OBSTRUCTIONS TO VISIBILITY.

ARZ001-003-010-029-251200-
NORTHWEST ARKANSAS

CITY           SKY/WX    TMP DP  RH WIND       PRES   REMARKS
FAYETTEVILLE   CLEAR     24  17  74 N10       30.12R WCI  14
FORT SMITH     CLEAR     32  20  61 NW8       30.15R WCI  25
HARRISON       CLEAR     24  16  71 NW10      30.07R WCI  14
BENTONVILLE    CLEAR     25  16  68 N8        30.11S WCI  16
ROGERS         CLEAR     24  17  74 NW7       30.11S WCI  16
SILOAM SPGS    CLEAR     25  14  63 N7        30.12S WCI  17
HIGHFILL       CLEAR     24  16  71 N8        30.11S WCI  15
$$

ARZ004-005-016-251200-
NORTH CENTRAL ARKANSAS

CITY           SKY/WX    TMP DP  RH WIND       PRES   REMARKS
BATESVILLE     PTCLDY    32  19  59 W8        30.07R WCI  25
FLIPPIN        CLEAR     28  12  50 NW12G18   30.06R WCI  18
MTN HOME       PTCLDY    28  18  66 NW9       30.06R WCI  19
$$

ARZ040-041-251200-
WEST CENTRAL ARKANSAS

CITY           SKY/WX    TMP DP  RH WIND       PRES   REMARKS
MENA           CLEAR     34  23  64 N6G17     30.10R WCI  29
MOUNT IDA      CLEAR     32  20  61 NW6       30.08R WCI  26
$$

ARZ009-017-025-026-028-251200-
NORTHEAST ARKANSAS

CITY           SKY/WX    TMP DP  RH WIND       PRES   REMARKS
CORNING        FAIR      32  23  69 W13       30.04R WCI  22
JONESBORO      CLEAR     34  21  59 NW14G24   30.03R WCI  25
NEWPORT        CLEAR     34  21  59 MISG        N/A
WALNUT RIDGE   CLEAR     32  18  55 NW13      30.05R WCI  22
BLYTHEVILLE    CLEAR     35  24  64 NW17      30.02R WCI  25
$$

ARZ022-023-033-042-044-251200-
CENTRAL ARKANSAS

CITY           SKY/WX    TMP DP  RH WIND       PRES   REMARKS
LITTLE ROCK    CLEAR     35  23  61 NW12      30.09R WCI  27
JACKSONVILLE   CLEAR     35  24  64 NW6       30.08R WCI  30
SEARCY         CLEAR     33  22  63 NW5       30.10R WCI  29
HOT SPRINGS    CLEAR     34  22  61 NW10      30.09R WCI  26
RUSSELLVILLE   CLEAR     33  22  63 NW12      30.10R WCI  24
CLINTON        FAIR      32  19  59 NW9       30.09R WCI  24
$$

ARZ036-251200-
EAST ARKANSAS

CITY           SKY/WX    TMP DP  RH WIND       PRES   REMARKS
WEST MEMPHIS   CLEAR     36  25  64 NW12G21   30.03R
$$

ARZ050-053-066-070-073-251200-
SOUTHWEST ARKANSAS

CITY           SKY/WX    TMP DP  RH WIND       PRES   REMARKS
ARKADELPHIA    FAIR      37  23  56 N9        30.12R
CAMDEN         CLEAR     37  23  56 NW3       30.10R
TEXARKANA      CLEAR     36  25  64 NW8       30.11R
EL DORADO      CLEAR     40  23  50 NW12      30.08R
DE QUEEN       CLEAR     33  24  69 NW3       30.10R
$$

ARZ056-057-069-251200-
SOUTHEAST ARKANSAS

CITY           SKY/WX    TMP DP  RH WIND       PRES   REMARKS
PINE BLUFF     CLEAR     37  25  61 NW10      30.08R
STUTTGART      CLEAR     37  19  48 NW18      30.07R
MONTICELLO     CLEAR     41  25  53 NW8       30.06R

$$






USA.gov is the U.S. government's official web portal to all federal, state and local government web resources and services.